Time,TemperatureF,DewpointF,PressureIn,WindDirection,WindDirectionDegrees,WindSpeedMPH,WindSpeedGustMPH,Humidity,HourlyPrecipIn,Conditions,Clouds,dailyrainin,SoftwareType,DateUTC
2013-02-02 00:02:00,25.3,16.5,30.58,NW,313,0.0,0.0,69,0.00,,,0.00,Wunderground v.1.15,2013-02-02 07:02:00,
2013-02-02 00:03:00,25.1,16.4,30.58,NW,313,0.0,0.0,69,0.00,,,0.00,Wunderground v.1.15,2013-02-02 07:03:00,
2013-02-02 00:05:00,25.1,16.4,30.58,NW,313,0.0,0.0,69,0.00,,,0.00,Wunderground v.1.15,2013-02-02 07:05:00,
2013-02-02 00:08:00,25.1,16.4,30.58,NW,313,0.0,0.0,69,0.00,,,0.00,Wunderground v.1.15,2013-02-02 07:08:00,
2013-02-02 00:12:00,25.0,15.9,30.58,NW,313,0.0,0.0,68,0.00,,,0.00,Wunderground v.1.15,2013-02-02 07:12:00,
2013-02-02 00:15:00,25.1,15.7,30.57,NW,313,0.0,1.0,67,0.00,,,0.00,Wunderground v.1.15,2013-02-02 07:15:00,
2013-02-02 00:17:00,25.1,15.7,30.57,NW,313,0.0,1.0,67,0.00,,,0.00,Wunderground v.1.15,2013-02-02 07:17:00,
2013-02-02 00:19:00,25.1,15.3,30.57,NW,313,0.0,0.0,66,0.00,,,0.00,Wunderground v.1.15,2013-02-02 07:19:00,
2013-02-02 00:24:00,25.0,15.2,30.57,NW,313,0.0,2.0,66,0.00,,,0.00,Wunderground v.1.15,2013-02-02 07:24:00,
2013-02-02 00:26:00,24.8,15.0,30.57,NW,313,0.0,2.0,66,0.00,,,0.00,Wunderground v.1.15,2013-02-02 07:26:00,
2013-02-02 00:30:00,24.7,14.9,30.57,NW,313,1.0,1.0,66,0.00,,,0.00,Wunderground v.1.15,2013-02-02 07:30:00,
2013-02-02 00:32:00,24.7,14.9,30.58,NW,313,1.0,1.0,66,0.00,,,0.00,Wunderground v.1.15,2013-02-02 07:32:00,
2013-02-02 00:35:00,25.0,14.9,30.58,SSE,163,1.0,2.0,65,0.00,,,0.00,Wunderground v.1.15,2013-02-02 07:35:00,
2013-02-02 00:40:00,25.1,15.0,30.58,SSE,163,1.0,2.0,65,0.00,,,0.00,Wunderground v.1.15,2013-02-02 07:40:00,
2013-02-02 00:42:00,25.1,15.0,30.58,SSE,163,1.0,2.0,65,0.00,,,0.00,Wunderground v.1.15,2013-02-02 07:42:00,
2013-02-02 00:45:00,25.1,15.0,30.58,SSE,163,1.0,2.0,65,0.00,,,0.00,Wunderground v.1.15,2013-02-02 07:45:00,
2013-02-02 00:47:00,25.0,14.9,30.58,SSE,163,1.0,2.0,65,0.00,,,0.00,Wunderground v.1.15,2013-02-02 07:47:00,
2013-02-02 00:51:00,25.0,14.5,30.58,SSE,163,0.0,1.0,64,0.00,,,0.00,Wunderground v.1.15,2013-02-02 07:51:00,
2013-02-02 00:54:00,25.0,14.5,30.58,SSE,163,0.0,1.0,64,0.00,,,0.00,Wunderground v.1.15,2013-02-02 07:54:00,
2013-02-02 00:56:00,25.0,14.5,30.58,SSE,163,0.0,1.0,64,0.00,,,0.00,Wunderground v.1.15,2013-02-02 07:56:00,
2013-02-02 00:58:00,25.1,14.6,30.58,SSE,163,0.0,1.0,64,0.00,,,0.00,Wunderground v.1.15,2013-02-02 07:58:00,
2013-02-02 01:00:00,25.1,15.0,30.58,SSE,163,0.0,0.0,65,0.00,,,0.00,Wunderground v.1.15,2013-02-02 08:00:00,
2013-02-02 01:02:00,25.1,15.0,30.58,SSE,163,0.0,0.0,65,0.00,,,0.00,Wunderground v.1.15,2013-02-02 08:02:00,
2013-02-02 01:06:00,25.1,15.3,30.58,SSE,163,0.0,0.0,66,0.00,,,0.00,Wunderground v.1.15,2013-02-02 08:06:00,
2013-02-02 01:09:00,25.1,15.3,30.58,SSE,163,0.0,0.0,66,0.00,,,0.00,Wunderground v.1.15,2013-02-02 08:09:00,
2013-02-02 01:12:00,25.1,15.3,30.58,SSE,163,0.0,0.0,66,0.00,,,0.00,Wunderground v.1.15,2013-02-02 08:12:00,
2013-02-02 01:16:00,25.0,14.9,30.58,SSE,163,0.0,0.0,65,0.00,,,0.00,Wunderground v.1.15,2013-02-02 08:16:00,
2013-02-02 01:18:00,24.8,14.7,30.58,SSE,163,0.0,0.0,65,0.00,,,0.00,Wunderground v.1.15,2013-02-02 08:18:00,
2013-02-02 01:21:00,24.7,14.6,30.58,SSE,163,0.0,0.0,65,0.00,,,0.00,Wunderground v.1.15,2013-02-02 08:21:00,
2013-02-02 01:23:00,24.7,14.6,30.58,SSE,163,0.0,0.0,65,0.00,,,0.00,Wunderground v.1.15,2013-02-02 08:23:00,
2013-02-02 01:26:00,24.7,14.9,30.58,SSE,163,0.0,0.0,66,0.00,,,0.00,Wunderground v.1.15,2013-02-02 08:26:00,
2013-02-02 01:28:00,24.5,15.1,30.58,SSE,163,0.0,0.0,67,0.00,,,0.00,Wunderground v.1.15,2013-02-02 08:28:00,
2013-02-02 01:30:00,24.5,15.1,30.58,SSE,163,0.0,0.0,67,0.00,,,0.00,Wunderground v.1.15,2013-02-02 08:30:00,
2013-02-02 01:31:00,24.7,15.6,30.58,SSE,163,0.0,0.0,68,0.00,,,0.00,Wunderground v.1.15,2013-02-02 08:31:00,
2013-02-02 01:38:00,24.7,15.6,30.58,SSE,163,0.0,2.0,68,0.00,,,0.00,Wunderground v.1.15,2013-02-02 08:38:00,
2013-02-02 01:41:00,24.8,15.4,30.58,East,94,1.0,1.0,67,0.00,,,0.00,Wunderground v.1.15,2013-02-02 08:41:00,
2013-02-02 01:43:00,24.8,15.0,30.58,East,94,1.0,1.0,66,0.00,,,0.00,Wunderground v.1.15,2013-02-02 08:43:00,
2013-02-02 01:48:00,24.8,15.4,30.58,East,94,1.0,1.0,67,0.00,,,0.00,Wunderground v.1.15,2013-02-02 08:48:00,
2013-02-02 01:50:00,24.8,15.4,30.58,SE,144,0.0,0.0,67,0.00,,,0.00,Wunderground v.1.15,2013-02-02 08:50:00,
2013-02-02 01:53:00,24.7,16.0,30.58,SE,144,0.0,1.0,69,0.00,,,0.00,Wunderground v.1.15,2013-02-02 08:53:00,
2013-02-02 01:55:00,24.7,16.0,30.58,SE,144,0.0,1.0,69,0.00,,,0.00,Wunderground v.1.15,2013-02-02 08:55:00,
2013-02-02 01:57:00,24.7,16.3,30.58,SE,144,0.0,1.0,70,0.00,,,0.00,Wunderground v.1.15,2013-02-02 08:57:00,
2013-02-02 02:01:00,24.4,16.0,30.59,SE,144,0.0,0.0,70,0.00,,,0.00,Wunderground v.1.15,2013-02-02 09:01:00,
2013-02-02 02:05:00,24.2,16.1,30.59,SE,144,0.0,0.0,71,0.00,,,0.00,Wunderground v.1.15,2013-02-02 09:05:00,
2013-02-02 02:08:00,24.1,16.4,30.59,SE,144,0.0,0.0,72,0.00,,,0.00,Wunderground v.1.15,2013-02-02 09:08:00,
2013-02-02 02:10:00,23.9,16.2,30.59,SE,144,0.0,0.0,72,0.00,,,0.00,Wunderground v.1.15,2013-02-02 09:10:00,
2013-02-02 02:12:00,23.8,16.1,30.59,SE,144,0.0,0.0,72,0.00,,,0.00,Wunderground v.1.15,2013-02-02 09:12:00,
2013-02-02 02:14:00,23.6,16.2,30.59,SE,144,0.0,0.0,73,0.00,,,0.00,Wunderground v.1.15,2013-02-02 09:14:00,
2013-02-02 02:15:00,23.5,16.1,30.59,SE,144,0.0,0.0,73,0.00,,,0.00,Wunderground v.1.15,2013-02-02 09:15:00,
2013-02-02 02:20:00,23.3,15.9,30.59,SE,144,0.0,0.0,73,0.00,,,0.00,Wunderground v.1.15,2013-02-02 09:20:00,
2013-02-02 02:22:00,23.2,16.1,30.59,SE,144,0.0,0.0,74,0.00,,,0.00,Wunderground v.1.15,2013-02-02 09:22:00,
2013-02-02 02:24:00,23.0,15.9,30.59,SE,144,0.0,0.0,74,0.00,,,0.00,Wunderground v.1.15,2013-02-02 09:24:00,
2013-02-02 02:26:00,22.9,15.8,30.59,SE,144,0.0,0.0,74,0.00,,,0.00,Wunderground v.1.15,2013-02-02 09:26:00,
2013-02-02 02:27:00,22.9,15.8,30.59,SE,144,0.0,0.0,74,0.00,,,0.00,Wunderground v.1.15,2013-02-02 09:27:00,
2013-02-02 02:30:00,22.7,15.7,30.59,SE,144,0.0,0.0,74,0.00,,,0.00,Wunderground v.1.15,2013-02-02 09:30:00,
2013-02-02 02:32:00,22.5,15.8,30.59,SE,144,0.0,0.0,75,0.00,,,0.00,Wunderground v.1.15,2013-02-02 09:32:00,
2013-02-02 02:34:00,22.5,15.8,30.59,SE,144,0.0,0.0,75,0.00,,,0.00,Wunderground v.1.15,2013-02-02 09:34:00,
2013-02-02 02:35:00,22.5,15.8,30.59,SE,144,0.0,0.0,75,0.00,,,0.00,Wunderground v.1.15,2013-02-02 09:35:00,
2013-02-02 02:37:00,22.5,15.8,30.59,SE,144,0.0,0.0,75,0.00,,,0.00,Wunderground v.1.15,2013-02-02 09:37:00,
2013-02-02 02:39:00,22.7,15.7,30.59,SE,144,0.0,0.0,74,0.00,,,0.00,Wunderground v.1.15,2013-02-02 09:39:00,
2013-02-02 02:44:00,22.7,15.7,30.59,SE,144,0.0,0.0,74,0.00,,,0.00,Wunderground v.1.15,2013-02-02 09:44:00,
2013-02-02 02:46:00,22.5,15.5,30.60,SE,144,0.0,0.0,74,0.00,,,0.00,Wunderground v.1.15,2013-02-02 09:46:00,
2013-02-02 02:48:00,22.4,15.1,30.60,SE,144,0.0,0.0,73,0.00,,,0.00,Wunderground v.1.15,2013-02-02 09:48:00,
2013-02-02 02:51:00,22.2,14.9,30.60,SE,144,0.0,0.0,73,0.00,,,0.00,Wunderground v.1.15,2013-02-02 09:51:00,
2013-02-02 02:56:00,21.9,14.6,30.60,SE,144,0.0,0.0,73,0.00,,,0.00,Wunderground v.1.15,2013-02-02 09:56:00,
2013-02-02 02:58:00,21.9,14.6,30.60,SE,144,0.0,0.0,73,0.00,,,0.00,Wunderground v.1.15,2013-02-02 09:58:00,
2013-02-02 03:04:00,21.8,14.2,30.62,SE,144,0.0,0.0,72,0.00,,,0.00,Wunderground v.1.15,2013-02-02 10:04:00,
2013-02-02 03:06:00,21.8,14.2,30.62,SE,144,0.0,0.0,72,0.00,,,0.00,Wunderground v.1.15,2013-02-02 10:06:00,
2013-02-02 03:09:00,21.6,13.6,30.62,SE,144,0.0,0.0,71,0.00,,,0.00,Wunderground v.1.15,2013-02-02 10:09:00,
2013-02-02 03:11:00,21.6,13.6,30.62,SE,144,0.0,0.0,71,0.00,,,0.00,Wunderground v.1.15,2013-02-02 10:11:00,
2013-02-02 03:13:00,21.6,13.6,30.62,SE,144,0.0,0.0,71,0.00,,,0.00,Wunderground v.1.15,2013-02-02 10:13:00,
2013-02-02 03:18:00,21.4,13.1,30.62,SE,144,0.0,0.0,70,0.00,,,0.00,Wunderground v.1.15,2013-02-02 10:18:00,
2013-02-02 03:20:00,21.4,13.1,30.62,SE,144,0.0,0.0,70,0.00,,,0.00,Wunderground v.1.15,2013-02-02 10:20:00,
2013-02-02 03:21:00,21.4,13.1,30.62,SE,144,0.0,0.0,70,0.00,,,0.00,Wunderground v.1.15,2013-02-02 10:21:00,
2013-02-02 03:23:00,21.4,13.1,30.62,SE,144,0.0,0.0,70,0.00,,,0.00,Wunderground v.1.15,2013-02-02 10:23:00,
2013-02-02 03:26:00,21.6,13.3,30.62,SE,144,0.0,0.0,70,0.00,,,0.00,Wunderground v.1.15,2013-02-02 10:26:00,
2013-02-02 03:28:00,21.6,13.0,30.62,SE,144,0.0,0.0,69,0.00,,,0.00,Wunderground v.1.15,2013-02-02 10:28:00,
2013-02-02 03:30:00,21.4,12.8,30.62,SE,144,0.0,0.0,69,0.00,,,0.00,Wunderground v.1.15,2013-02-02 10:30:00,
2013-02-02 03:31:00,21.4,12.8,30.63,SE,144,0.0,0.0,69,0.00,,,0.00,Wunderground v.1.15,2013-02-02 10:31:00,
2013-02-02 03:34:00,21.4,12.8,30.63,SE,144,0.0,0.0,69,0.00,,,0.00,Wunderground v.1.15,2013-02-02 10:34:00,
2013-02-02 03:38:00,21.3,12.7,30.63,SE,144,0.0,0.0,69,0.00,,,0.00,Wunderground v.1.15,2013-02-02 10:38:00,
2013-02-02 03:39:00,21.3,12.7,30.63,SE,144,0.0,0.0,69,0.00,,,0.00,Wunderground v.1.15,2013-02-02 10:39:00,
2013-02-02 03:43:00,21.4,13.1,30.63,SE,144,0.0,0.0,70,0.00,,,0.00,Wunderground v.1.15,2013-02-02 10:43:00,
2013-02-02 03:46:00,21.3,13.0,30.63,SE,144,0.0,0.0,70,0.00,,,0.00,Wunderground v.1.15,2013-02-02 10:46:00,
2013-02-02 03:48:00,21.3,13.0,30.63,SE,144,0.0,0.0,70,0.00,,,0.00,Wunderground v.1.15,2013-02-02 10:48:00,
2013-02-02 03:50:00,21.1,12.8,30.63,SE,144,0.0,0.0,70,0.00,,,0.00,Wunderground v.1.15,2013-02-02 10:50:00,
2013-02-02 03:51:00,21.1,12.8,30.63,SE,144,0.0,0.0,70,0.00,,,0.00,Wunderground v.1.15,2013-02-02 10:51:00,
2013-02-02 03:55:00,21.0,13.1,30.63,SE,144,0.0,0.0,71,0.00,,,0.00,Wunderground v.1.15,2013-02-02 10:55:00,
2013-02-02 04:00:00,21.0,13.1,30.63,SE,144,0.0,0.0,71,0.00,,,0.00,Wunderground v.1.15,2013-02-02 11:00:00,
2013-02-02 04:01:00,21.0,13.1,30.63,SE,144,0.0,0.0,71,0.00,,,0.00,Wunderground v.1.15,2013-02-02 11:01:00,
2013-02-02 04:06:00,21.1,13.5,30.63,SE,144,0.0,1.0,72,0.00,,,0.00,Wunderground v.1.15,2013-02-02 11:06:00,
2013-02-02 04:08:00,21.1,13.2,30.63,SE,144,0.0,1.0,71,0.00,,,0.00,Wunderground v.1.15,2013-02-02 11:08:00,
2013-02-02 04:13:00,21.3,13.0,30.63,SE,144,0.0,1.0,70,0.00,,,0.00,Wunderground v.1.15,2013-02-02 11:13:00,
2013-02-02 04:17:00,21.3,13.0,30.63,SE,144,0.0,1.0,70,0.00,,,0.00,Wunderground v.1.15,2013-02-02 11:17:00,
2013-02-02 04:20:00,21.3,12.7,30.63,SE,144,0.0,0.0,69,0.00,,,0.00,Wunderground v.1.15,2013-02-02 11:20:00,
2013-02-02 04:24:00,21.1,12.5,30.63,SE,144,0.0,0.0,69,0.00,,,0.00,Wunderground v.1.15,2013-02-02 11:24:00,
2013-02-02 04:25:00,21.3,12.4,30.63,SE,144,0.0,0.0,68,0.00,,,0.00,Wunderground v.1.15,2013-02-02 11:25:00,
2013-02-02 04:27:00,21.3,12.4,30.63,SE,144,0.0,0.0,68,0.00,,,0.00,Wunderground v.1.15,2013-02-02 11:27:00,
2013-02-02 04:32:00,21.1,11.8,30.63,SE,144,0.0,1.0,67,0.00,,,0.00,Wunderground v.1.15,2013-02-02 11:32:00,
2013-02-02 04:35:00,21.3,12.0,30.63,SE,144,0.0,1.0,67,0.00,,,0.00,Wunderground v.1.15,2013-02-02 11:35:00,
2013-02-02 04:37:00,21.3,12.0,30.63,SE,144,0.0,1.0,67,0.00,,,0.00,Wunderground v.1.15,2013-02-02 11:37:00,
2013-02-02 04:42:00,21.3,12.4,30.63,SE,144,0.0,0.0,68,0.00,,,0.00,Wunderground v.1.15,2013-02-02 11:42:00,
2013-02-02 04:44:00,21.3,12.4,30.63,SE,144,0.0,0.0,68,0.00,,,0.00,Wunderground v.1.15,2013-02-02 11:44:00,
2013-02-02 04:46:00,21.1,12.2,30.63,SE,144,0.0,0.0,68,0.00,,,0.00,Wunderground v.1.15,2013-02-02 11:46:00,
2013-02-02 04:48:00,21.1,12.2,30.63,SE,144,0.0,0.0,68,0.00,,,0.00,Wunderground v.1.15,2013-02-02 11:48:00,
2013-02-02 04:49:00,21.0,12.1,30.63,SE,144,0.0,0.0,68,0.00,,,0.00,Wunderground v.1.15,2013-02-02 11:49:00,
2013-02-02 04:52:00,20.8,12.2,30.63,SE,144,0.0,0.0,69,0.00,,,0.00,Wunderground v.1.15,2013-02-02 11:52:00,
2013-02-02 04:54:00,20.8,12.2,30.63,SE,144,0.0,0.0,69,0.00,,,0.00,Wunderground v.1.15,2013-02-02 11:54:00,
2013-02-02 04:56:00,20.6,12.4,30.63,SE,144,0.0,0.0,70,0.00,,,0.00,Wunderground v.1.15,2013-02-02 11:56:00,
2013-02-02 05:00:00,20.5,12.6,30.63,SE,144,0.0,0.0,71,0.00,,,0.00,Wunderground v.1.15,2013-02-02 12:00:00,
2013-02-02 05:02:00,20.5,12.6,30.64,SE,144,0.0,0.0,71,0.00,,,0.00,Wunderground v.1.15,2013-02-02 12:02:00,
2013-02-02 05:06:00,20.2,12.3,30.64,SE,144,0.0,0.0,71,0.00,,,0.00,Wunderground v.1.15,2013-02-02 12:06:00,
2013-02-02 05:07:00,20.2,12.3,30.64,SE,144,0.0,0.0,71,0.00,,,0.00,Wunderground v.1.15,2013-02-02 12:07:00,
2013-02-02 05:09:00,20.0,12.4,30.64,SE,144,0.0,0.0,72,0.00,,,0.00,Wunderground v.1.15,2013-02-02 12:09:00,
2013-02-02 05:14:00,19.7,12.1,30.64,SE,144,0.0,0.0,72,0.00,,,0.00,Wunderground v.1.15,2013-02-02 12:14:00,
2013-02-02 05:16:00,19.7,12.1,30.68,SE,144,0.0,0.0,72,0.00,,,0.00,Wunderground v.1.15,2013-02-02 12:16:00,
2013-02-02 05:17:00,19.7,12.4,30.68,SE,144,0.0,0.0,73,0.00,,,0.00,Wunderground v.1.15,2013-02-02 12:17:00,
2013-02-02 05:21:00,19.9,12.6,30.68,SE,144,0.0,0.0,73,0.00,,,0.00,Wunderground v.1.15,2013-02-02 12:21:00,
2013-02-02 05:23:00,19.7,12.4,30.68,SE,144,0.0,0.0,73,0.00,,,0.00,Wunderground v.1.15,2013-02-02 12:23:00,
2013-02-02 05:26:00,19.9,12.9,30.68,SE,144,0.0,0.0,74,0.00,,,0.00,Wunderground v.1.15,2013-02-02 12:26:00,
2013-02-02 05:28:00,19.9,12.9,30.68,SE,144,0.0,0.0,74,0.00,,,0.00,Wunderground v.1.15,2013-02-02 12:28:00,
2013-02-02 05:30:00,19.9,12.9,30.68,SE,144,0.0,0.0,74,0.00,,,0.00,Wunderground v.1.15,2013-02-02 12:30:00,
2013-02-02 05:34:00,19.9,12.9,30.68,SE,144,0.0,1.0,74,0.00,,,0.00,Wunderground v.1.15,2013-02-02 12:34:00,
2013-02-02 05:36:00,19.9,12.9,30.68,SE,144,0.0,1.0,74,0.00,,,0.00,Wunderground v.1.15,2013-02-02 12:36:00,
2013-02-02 05:39:00,19.7,12.4,30.68,SE,144,0.0,0.0,73,0.00,,,0.00,Wunderground v.1.15,2013-02-02 12:39:00,
2013-02-02 05:41:00,19.7,12.4,30.68,SE,144,0.0,0.0,73,0.00,,,0.00,Wunderground v.1.15,2013-02-02 12:41:00,
2013-02-02 05:45:00,19.7,12.1,30.68,SE,144,0.0,0.0,72,0.00,,,0.00,Wunderground v.1.15,2013-02-02 12:45:00,
2013-02-02 05:48:00,19.7,11.8,30.68,SE,144,0.0,0.0,71,0.00,,,0.00,Wunderground v.1.15,2013-02-02 12:48:00,
2013-02-02 05:52:00,19.9,12.0,30.68,SE,144,0.0,0.0,71,0.00,,,0.00,Wunderground v.1.15,2013-02-02 12:52:00,
2013-02-02 05:58:00,20.2,12.0,30.68,SE,144,0.0,0.0,70,0.00,,,0.00,Wunderground v.1.15,2013-02-02 12:58:00,
2013-02-02 06:00:00,20.2,12.0,30.68,SE,144,0.0,0.0,70,0.00,,,0.00,Wunderground v.1.15,2013-02-02 13:00:00,
2013-02-02 06:06:00,20.5,12.3,30.69,SE,144,0.0,1.0,70,0.00,,,0.00,Wunderground v.1.15,2013-02-02 13:06:00,
2013-02-02 06:07:00,20.5,11.9,30.69,SE,144,0.0,1.0,69,0.00,,,0.00,Wunderground v.1.15,2013-02-02 13:07:00,
2013-02-02 06:09:00,20.5,11.9,30.69,SE,144,0.0,0.0,69,0.00,,,0.00,Wunderground v.1.15,2013-02-02 13:09:00,
2013-02-02 06:11:00,20.5,11.9,30.69,SE,144,0.0,1.0,69,0.00,,,0.00,Wunderground v.1.15,2013-02-02 13:11:00,
2013-02-02 06:18:00,20.5,11.6,30.72,SE,144,1.0,2.0,68,0.00,,,0.00,Wunderground v.1.15,2013-02-02 13:18:00,
2013-02-02 06:20:00,20.3,11.4,30.72,SE,144,1.0,1.0,68,0.00,,,0.00,Wunderground v.1.15,2013-02-02 13:20:00,
2013-02-02 06:21:00,20.3,11.4,30.72,SE,144,1.0,1.0,68,0.00,,,0.00,Wunderground v.1.15,2013-02-02 13:21:00,
2013-02-02 06:23:00,20.2,11.3,30.72,SE,144,1.0,1.0,68,0.00,,,0.00,Wunderground v.1.15,2013-02-02 13:23:00,
2013-02-02 06:28:00,20.2,11.3,30.72,SE,144,0.0,1.0,68,0.00,,,0.00,Wunderground v.1.15,2013-02-02 13:28:00,
2013-02-02 06:32:00,20.0,11.1,30.74,SE,144,0.0,0.0,68,0.00,,,0.00,Wunderground v.1.15,2013-02-02 13:32:00,
2013-02-02 06:34:00,19.9,11.0,30.74,SE,144,0.0,0.0,68,0.00,,,0.00,Wunderground v.1.15,2013-02-02 13:34:00,
2013-02-02 06:38:00,19.9,11.0,30.74,SE,144,0.0,0.0,68,0.00,,,0.00,Wunderground v.1.15,2013-02-02 13:38:00,
2013-02-02 06:39:00,19.9,11.0,30.74,SE,144,0.0,0.0,68,0.00,,,0.00,Wunderground v.1.15,2013-02-02 13:39:00,
2013-02-02 06:41:00,19.9,11.0,30.74,SE,144,0.0,0.0,68,0.00,,,0.00,Wunderground v.1.15,2013-02-02 13:41:00,
2013-02-02 06:46:00,19.7,10.8,30.74,SE,144,0.0,0.0,68,0.00,,,0.00,Wunderground v.1.15,2013-02-02 13:46:00,
2013-02-02 06:48:00,19.7,10.8,30.74,SE,144,0.0,0.0,68,0.00,,,0.00,Wunderground v.1.15,2013-02-02 13:48:00,
2013-02-02 06:50:00,19.5,10.6,30.74,SE,144,0.0,0.0,68,0.00,,,0.00,Wunderground v.1.15,2013-02-02 13:50:00,
2013-02-02 06:53:00,19.5,10.6,30.74,SE,144,0.0,0.0,68,0.00,,,0.00,Wunderground v.1.15,2013-02-02 13:53:00,
2013-02-02 06:56:00,19.5,10.6,30.74,SE,144,0.0,0.0,68,0.00,,,0.00,Wunderground v.1.15,2013-02-02 13:56:00,
2013-02-02 06:58:00,19.4,10.6,30.74,SE,144,0.0,0.0,68,0.00,,,0.00,Wunderground v.1.15,2013-02-02 13:58:00,
2013-02-02 07:00:00,19.4,10.6,30.74,SE,144,0.0,0.0,68,0.00,,,0.00,Wunderground v.1.15,2013-02-02 14:00:00,
2013-02-02 07:03:00,19.2,10.7,30.74,SE,144,0.0,0.0,69,0.00,,,0.00,Wunderground v.1.15,2013-02-02 14:03:00,
2013-02-02 07:06:00,19.4,10.9,30.74,SE,144,0.0,0.0,69,0.00,,,0.00,Wunderground v.1.15,2013-02-02 14:06:00,
2013-02-02 07:10:00,19.5,10.6,30.74,SE,144,0.0,0.0,68,0.00,,,0.00,Wunderground v.1.15,2013-02-02 14:10:00,
2013-02-02 07:12:00,19.7,10.8,30.74,SE,144,0.0,0.0,68,0.00,,,0.00,Wunderground v.1.15,2013-02-02 14:12:00,
2013-02-02 07:13:00,19.9,11.0,30.74,SE,144,0.0,0.0,68,0.00,,,0.00,Wunderground v.1.15,2013-02-02 14:13:00,
2013-02-02 07:15:00,19.9,10.7,30.77,SE,144,0.0,0.0,67,0.00,,,0.00,Wunderground v.1.15,2013-02-02 14:15:00,
2013-02-02 07:18:00,20.0,10.8,30.77,SE,144,0.0,0.0,67,0.00,,,0.00,Wunderground v.1.15,2013-02-02 14:18:00,
2013-02-02 07:20:00,20.0,10.8,30.77,SE,144,0.0,0.0,67,0.00,,,0.00,Wunderground v.1.15,2013-02-02 14:20:00,
2013-02-02 07:23:00,20.2,10.6,30.77,SE,144,0.0,2.0,66,0.00,,,0.00,Wunderground v.1.15,2013-02-02 14:23:00,
2013-02-02 07:25:00,20.2,10.6,30.77,SE,144,1.0,2.0,66,0.00,,,0.00,Wunderground v.1.15,2013-02-02 14:25:00,
2013-02-02 07:28:00,20.2,10.6,30.77,SE,144,1.0,2.0,66,0.00,,,0.00,Wunderground v.1.15,2013-02-02 14:28:00,
2013-02-02 07:30:00,20.2,10.6,30.77,SE,144,1.0,1.0,66,0.00,,,0.00,Wunderground v.1.15,2013-02-02 14:30:00,
2013-02-02 07:33:00,20.3,10.7,30.78,SE,144,0.0,1.0,66,0.00,,,0.00,Wunderground v.1.15,2013-02-02 14:33:00,
2013-02-02 07:35:00,20.5,10.6,30.78,SE,144,0.0,1.0,65,0.00,,,0.00,Wunderground v.1.15,2013-02-02 14:35:00,
2013-02-02 07:41:00,21.1,11.2,30.78,SE,144,0.0,1.0,65,0.00,,,0.00,Wunderground v.1.15,2013-02-02 14:41:00,
2013-02-02 07:43:00,21.3,11.0,30.78,SE,144,0.0,1.0,64,0.00,,,0.00,Wunderground v.1.15,2013-02-02 14:43:00,
2013-02-02 07:46:00,21.6,10.9,30.77,SE,144,0.0,1.0,63,0.00,,,0.00,Wunderground v.1.15,2013-02-02 14:46:00,
2013-02-02 07:48:00,21.8,11.1,30.77,SE,144,0.0,2.0,63,0.00,,,0.00,Wunderground v.1.15,2013-02-02 14:48:00,
2013-02-02 07:50:00,22.1,11.1,30.77,SE,144,1.0,1.0,62,0.00,,,0.00,Wunderground v.1.15,2013-02-02 14:50:00,
2013-02-02 07:52:00,22.2,11.1,30.77,SE,144,1.0,1.0,62,0.00,,,0.00,Wunderground v.1.15,2013-02-02 14:52:00,
2013-02-02 07:53:00,22.4,11.3,30.77,SE,144,1.0,2.0,62,0.00,,,0.00,Wunderground v.1.15,2013-02-02 14:53:00,
2013-02-02 07:56:00,22.7,11.6,30.77,SE,144,1.0,2.0,62,0.00,,,0.00,Wunderground v.1.15,2013-02-02 14:56:00,
2013-02-02 08:00:00,23.3,12.2,30.77,SE,144,0.0,0.0,62,0.00,,,0.00,Wunderground v.1.15,2013-02-02 15:00:00,
2013-02-02 08:03:00,23.6,12.1,30.77,SE,144,0.0,1.0,61,0.00,,,0.00,Wunderground v.1.15,2013-02-02 15:03:00,
2013-02-02 08:08:00,23.9,11.6,30.77,SE,131,1.0,1.0,59,0.00,,,0.00,Wunderground v.1.15,2013-02-02 15:08:00,
2013-02-02 08:10:00,24.1,11.4,30.77,SE,131,1.0,1.0,58,0.00,,,0.00,Wunderground v.1.15,2013-02-02 15:10:00,
2013-02-02 08:12:00,24.4,11.7,30.77,SE,131,1.0,1.0,58,0.00,,,0.00,Wunderground v.1.15,2013-02-02 15:12:00,
2013-02-02 08:13:00,24.5,11.8,30.77,SE,131,1.0,1.0,58,0.00,,,0.00,Wunderground v.1.15,2013-02-02 15:13:00,
2013-02-02 08:15:00,24.8,11.7,30.76,SE,131,0.0,1.0,57,0.00,,,0.00,Wunderground v.1.15,2013-02-02 15:15:00,
2013-02-02 08:18:00,25.1,12.0,30.76,SE,131,0.0,1.0,57,0.00,,,0.00,Wunderground v.1.15,2013-02-02 15:18:00,
2013-02-02 08:20:00,25.3,11.8,30.76,SE,130,1.0,1.0,56,0.00,,,0.00,Wunderground v.1.15,2013-02-02 15:20:00,
2013-02-02 08:22:00,25.4,11.9,30.76,SSE,153,1.0,4.0,56,0.00,,,0.00,Wunderground v.1.15,2013-02-02 15:22:00,
2013-02-02 08:24:00,25.4,11.9,30.76,SSE,153,1.0,4.0,56,0.00,,,0.00,Wunderground v.1.15,2013-02-02 15:24:00,
2013-02-02 08:25:00,25.6,12.1,30.76,SSE,153,1.0,4.0,56,0.00,,,0.00,Wunderground v.1.15,2013-02-02 15:25:00,
2013-02-02 08:27:00,25.7,12.6,30.76,SSE,153,1.0,4.0,57,0.00,,,0.00,Wunderground v.1.15,2013-02-02 15:27:00,
2013-02-02 08:32:00,25.8,12.2,30.77,SSE,153,1.0,2.0,56,0.00,,,0.00,Wunderground v.1.15,2013-02-02 15:32:00,
2013-02-02 08:33:00,26.0,12.4,30.77,SSE,153,1.0,2.0,56,0.00,,,0.00,Wunderground v.1.15,2013-02-02 15:33:00,
2013-02-02 08:35:00,26.0,12.4,30.77,SSE,153,1.0,2.0,56,0.00,,,0.00,Wunderground v.1.15,2013-02-02 15:35:00,
2013-02-02 08:37:00,26.3,12.7,30.77,SSE,152,1.0,2.0,56,0.00,,,0.00,Wunderground v.1.15,2013-02-02 15:37:00,
2013-02-02 08:42:00,26.6,12.6,30.77,SSE,153,1.0,1.0,55,0.00,,,0.00,Wunderground v.1.15,2013-02-02 15:42:00,
2013-02-02 08:44:00,26.7,12.7,30.77,SSE,153,0.0,1.0,55,0.00,,,0.00,Wunderground v.1.15,2013-02-02 15:44:00,
2013-02-02 08:47:00,27.5,13.0,30.76,SSE,153,0.0,2.0,54,0.00,,,0.00,Wunderground v.1.15,2013-02-02 15:47:00,
2013-02-02 08:49:00,27.6,12.7,30.76,SSE,153,1.0,4.0,53,0.00,,,0.00,Wunderground v.1.15,2013-02-02 15:49:00,
2013-02-02 08:52:00,27.6,12.7,30.76,SSE,153,1.0,4.0,53,0.00,,,0.00,Wunderground v.1.15,2013-02-02 15:52:00,
2013-02-02 08:57:00,27.9,13.4,30.76,SSE,152,1.0,4.0,54,0.00,,,0.00,Wunderground v.1.15,2013-02-02 15:57:00,
2013-02-02 09:00:00,28.2,13.7,30.76,SSE,153,1.0,1.0,54,0.00,,,0.00,Wunderground v.1.15,2013-02-02 16:00:00,
2013-02-02 09:02:00,28.4,13.9,30.76,SSE,153,0.0,1.0,54,0.00,,,0.00,Wunderground v.1.15,2013-02-02 16:02:00,
2013-02-02 09:06:00,29.0,14.0,30.76,SSE,153,0.0,1.0,53,0.00,,,0.00,Wunderground v.1.15,2013-02-02 16:06:00,
2013-02-02 09:09:00,29.3,14.3,30.76,SSE,153,1.0,1.0,53,0.00,,,0.00,Wunderground v.1.15,2013-02-02 16:09:00,
2013-02-02 09:14:00,29.1,14.5,30.76,SSE,153,1.0,1.0,54,0.00,,,0.00,Wunderground v.1.15,2013-02-02 16:14:00,
2013-02-02 09:16:00,29.3,14.3,30.76,SSE,153,1.0,2.0,53,0.00,,,0.00,Wunderground v.1.15,2013-02-02 16:16:00,
2013-02-02 09:19:00,29.5,14.0,30.76,SSE,153,1.0,3.0,52,0.00,,,0.00,Wunderground v.1.15,2013-02-02 16:19:00,
2013-02-02 09:21:00,29.7,13.8,30.76,SSE,153,1.0,3.0,51,0.00,,,0.00,Wunderground v.1.15,2013-02-02 16:21:00,
2013-02-02 09:24:00,29.7,13.8,30.76,SSE,153,1.0,3.0,51,0.00,,,0.00,Wunderground v.1.15,2013-02-02 16:24:00,
2013-02-02 09:26:00,29.8,14.7,30.76,SE,131,1.0,3.0,53,0.00,,,0.00,Wunderground v.1.15,2013-02-02 16:26:00,
2013-02-02 09:30:00,30.0,13.6,30.76,SE,131,2.0,2.0,50,0.00,,,0.00,Wunderground v.1.15,2013-02-02 16:30:00,
2013-02-02 09:31:00,30.1,14.1,30.75,SE,131,1.0,2.0,51,0.00,,,0.00,Wunderground v.1.15,2013-02-02 16:31:00,
2013-02-02 09:36:00,30.4,14.0,30.75,SSE,157,1.0,4.0,50,0.00,,,0.00,Wunderground v.1.15,2013-02-02 16:36:00,
2013-02-02 09:38:00,30.6,14.1,30.75,SSE,157,1.0,4.0,50,0.00,,,0.00,Wunderground v.1.15,2013-02-02 16:38:00,
2013-02-02 09:41:00,31.0,14.5,30.75,SSE,157,1.0,1.0,50,0.00,,,0.00,Wunderground v.1.15,2013-02-02 16:41:00,
2013-02-02 09:43:00,31.2,13.8,30.75,SSE,157,1.0,1.0,48,0.00,,,0.00,Wunderground v.1.15,2013-02-02 16:43:00,
2013-02-02 09:46:00,31.3,14.3,30.75,SSE,157,1.0,1.0,49,0.00,,,0.00,Wunderground v.1.15,2013-02-02 16:46:00,
2013-02-02 09:48:00,31.3,14.3,30.75,SSE,157,1.0,1.0,49,0.00,,,0.00,Wunderground v.1.15,2013-02-02 16:48:00,
2013-02-02 09:51:00,31.6,14.6,30.75,SSE,157,1.0,1.0,49,0.00,,,0.00,Wunderground v.1.15,2013-02-02 16:51:00,
2013-02-02 09:53:00,31.6,14.6,30.75,SSE,157,1.0,1.0,49,0.00,,,0.00,Wunderground v.1.15,2013-02-02 16:53:00,
2013-02-02 09:56:00,31.8,14.8,30.75,SSE,157,1.0,1.0,49,0.00,,,0.00,Wunderground v.1.15,2013-02-02 16:56:00,
2013-02-02 09:58:00,31.9,15.3,30.75,SSE,157,1.0,2.0,50,0.00,,,0.00,Wunderground v.1.15,2013-02-02 16:58:00,
2013-02-02 10:01:00,31.9,14.9,30.74,SSE,157,1.0,1.0,49,0.00,,,0.00,Wunderground v.1.15,2013-02-02 17:01:00,
2013-02-02 10:04:00,32.2,15.6,30.74,SSE,157,1.0,1.0,50,0.00,,,0.00,Wunderground v.1.15,2013-02-02 17:04:00,
2013-02-02 10:06:00,32.5,15.4,30.74,SSE,157,1.0,1.0,49,0.00,,,0.00,Wunderground v.1.15,2013-02-02 17:06:00,
2013-02-02 10:09:00,33.1,15.5,30.74,SSE,157,0.0,1.0,48,0.00,,,0.00,Wunderground v.1.15,2013-02-02 17:09:00,
2013-02-02 10:11:00,33.4,15.3,30.74,SSE,157,1.0,3.0,47,0.00,,,0.00,Wunderground v.1.15,2013-02-02 17:11:00,
2013-02-02 10:14:00,33.7,16.1,30.74,SSE,157,1.0,3.0,48,0.00,,,0.00,Wunderground v.1.15,2013-02-02 17:14:00,
2013-02-02 10:16:00,34.0,15.9,30.74,SSE,157,1.0,3.0,47,0.00,,,0.00,Wunderground v.1.15,2013-02-02 17:16:00,
2013-02-02 10:18:00,34.1,15.5,30.74,SSE,157,0.0,3.0,46,0.00,,,0.00,Wunderground v.1.15,2013-02-02 17:18:00,
2013-02-02 10:20:00,34.1,15.5,30.74,SSE,157,1.0,3.0,46,0.00,,,0.00,Wunderground v.1.15,2013-02-02 17:20:00,
2013-02-02 10:21:00,34.1,15.5,30.74,SSE,157,0.0,0.0,46,0.00,,,0.00,Wunderground v.1.15,2013-02-02 17:21:00,
2013-02-02 10:23:00,34.1,15.5,30.74,SSE,157,0.0,0.0,46,0.00,,,0.00,Wunderground v.1.15,2013-02-02 17:23:00,
2013-02-02 10:28:00,34.7,16.0,30.74,SSE,157,0.0,1.0,46,0.00,,,0.00,Wunderground v.1.15,2013-02-02 17:28:00,
2013-02-02 10:30:00,34.7,16.0,30.74,SSE,157,0.0,1.0,46,0.00,,,0.00,Wunderground v.1.15,2013-02-02 17:30:00,
2013-02-02 10:33:00,35.0,15.8,30.73,SSE,157,0.0,2.0,45,0.00,,,0.00,Wunderground v.1.15,2013-02-02 17:33:00,
2013-02-02 10:36:00,34.9,15.7,30.73,SSE,157,1.0,2.0,45,0.00,,,0.00,Wunderground v.1.15,2013-02-02 17:36:00,
2013-02-02 10:38:00,34.7,15.5,30.73,SSE,157,1.0,2.0,45,0.00,,,0.00,Wunderground v.1.15,2013-02-02 17:38:00,
2013-02-02 10:41:00,35.0,15.8,30.73,SSE,157,1.0,1.0,45,0.00,,,0.00,Wunderground v.1.15,2013-02-02 17:41:00,
2013-02-02 10:43:00,35.2,16.5,30.73,SSE,157,1.0,1.0,46,0.00,,,0.00,Wunderground v.1.15,2013-02-02 17:43:00,
2013-02-02 10:45:00,35.3,16.0,30.73,SSE,157,1.0,1.0,45,0.00,,,0.00,Wunderground v.1.15,2013-02-02 17:45:00,
2013-02-02 10:48:00,35.5,16.2,30.73,SSE,157,1.0,1.0,45,0.00,,,0.00,Wunderground v.1.15,2013-02-02 17:48:00,
2013-02-02 10:50:00,35.8,17.0,30.73,SSE,157,0.0,1.0,46,0.00,,,0.00,Wunderground v.1.15,2013-02-02 17:50:00,
2013-02-02 10:52:00,36.2,16.4,30.73,SSE,157,0.0,2.0,44,0.00,,,0.00,Wunderground v.1.15,2013-02-02 17:52:00,
2013-02-02 10:53:00,36.3,15.9,30.73,SSE,157,0.0,2.0,43,0.00,,,0.00,Wunderground v.1.15,2013-02-02 17:53:00,
2013-02-02 10:55:00,36.2,16.4,30.73,SSE,157,0.0,2.0,44,0.00,,,0.00,Wunderground v.1.15,2013-02-02 17:55:00,
2013-02-02 10:57:00,36.2,16.4,30.73,SSE,157,0.0,2.0,44,0.00,,,0.00,Wunderground v.1.15,2013-02-02 17:57:00,
2013-02-02 11:00:00,36.3,16.4,30.73,SSE,157,0.0,2.0,44,0.00,,,0.00,Wunderground v.1.15,2013-02-02 18:00:00,
2013-02-02 11:02:00,36.2,16.4,30.72,SSE,157,1.0,2.0,44,0.00,,,0.00,Wunderground v.1.15,2013-02-02 18:02:00,
2013-02-02 11:05:00,36.0,17.2,30.72,SSE,157,1.0,2.0,46,0.00,,,0.00,Wunderground v.1.15,2013-02-02 18:05:00,
2013-02-02 11:07:00,36.3,17.5,30.72,SSE,157,1.0,2.0,46,0.00,,,0.00,Wunderground v.1.15,2013-02-02 18:07:00,
2013-02-02 11:14:00,37.0,17.1,30.72,SSE,157,0.0,1.0,44,0.00,,,0.00,Wunderground v.1.15,2013-02-02 18:14:00,
2013-02-02 11:15:00,37.3,17.4,30.70,SSE,157,0.0,1.0,44,0.00,,,0.00,Wunderground v.1.15,2013-02-02 18:15:00,
2013-02-02 11:17:00,37.6,17.6,30.70,SSE,157,0.0,2.0,44,0.00,,,0.00,Wunderground v.1.15,2013-02-02 18:17:00,
2013-02-02 11:19:00,37.8,17.3,30.70,SSE,157,0.0,0.0,43,0.00,,,0.00,Wunderground v.1.15,2013-02-02 18:19:00,
2013-02-02 11:24:00,38.2,17.6,30.70,SSE,157,0.0,0.0,43,0.00,,,0.00,Wunderground v.1.15,2013-02-02 18:24:00,
2013-02-02 11:26:00,38.3,17.7,30.70,SSE,157,0.0,0.0,43,0.00,,,0.00,Wunderground v.1.15,2013-02-02 18:26:00,
2013-02-02 11:28:00,38.3,17.2,30.70,SSE,157,1.0,1.0,42,0.00,,,0.00,Wunderground v.1.15,2013-02-02 18:28:00,
2013-02-02 11:32:00,37.9,17.4,30.69,SSE,157,1.0,1.0,43,0.00,,,0.00,Wunderground v.1.15,2013-02-02 18:32:00,
2013-02-02 11:35:00,37.8,17.8,30.69,SSE,157,1.0,2.0,44,0.00,,,0.00,Wunderground v.1.15,2013-02-02 18:35:00,
2013-02-02 11:37:00,37.8,17.8,30.69,SSE,157,1.0,2.0,44,0.00,,,0.00,Wunderground v.1.15,2013-02-02 18:37:00,
2013-02-02 11:40:00,37.8,17.8,30.69,SSE,157,1.0,2.0,44,0.00,,,0.00,Wunderground v.1.15,2013-02-02 18:40:00,
2013-02-02 11:42:00,37.8,18.3,30.69,SSE,157,1.0,1.0,45,0.00,,,0.00,Wunderground v.1.15,2013-02-02 18:42:00,
2013-02-02 11:44:00,38.0,18.0,30.69,SSE,157,1.0,1.0,44,0.00,,,0.00,Wunderground v.1.15,2013-02-02 18:44:00,
2013-02-02 11:45:00,38.3,18.3,30.68,SSE,157,1.0,3.0,44,0.00,,,0.00,Wunderground v.1.15,2013-02-02 18:45:00,
2013-02-02 11:47:00,38.5,17.9,30.68,SSE,157,1.0,3.0,43,0.00,,,0.00,Wunderground v.1.15,2013-02-02 18:47:00,
2013-02-02 11:49:00,38.6,18.5,30.68,SSE,157,0.0,3.0,44,0.00,,,0.00,Wunderground v.1.15,2013-02-02 18:49:00,
2013-02-02 11:52:00,38.8,18.7,30.68,SSE,157,0.0,0.0,44,0.00,,,0.00,Wunderground v.1.15,2013-02-02 18:52:00,
2013-02-02 11:54:00,38.9,18.3,30.68,SSE,157,1.0,3.0,43,0.00,,,0.00,Wunderground v.1.15,2013-02-02 18:54:00,
2013-02-02 11:56:00,38.9,18.3,30.68,SSE,157,1.0,3.0,43,0.00,,,0.00,Wunderground v.1.15,2013-02-02 18:56:00,
2013-02-02 12:00:00,39.1,18.5,30.68,SSE,157,1.0,1.0,43,0.00,,,0.00,Wunderground v.1.15,2013-02-02 19:00:00,
2013-02-02 12:02:00,39.1,18.5,30.66,SSE,157,1.0,1.0,43,0.00,,,0.00,Wunderground v.1.15,2013-02-02 19:02:00,
2013-02-02 12:04:00,39.1,18.5,30.66,SE,130,1.0,2.0,43,0.00,,,0.00,Wunderground v.1.15,2013-02-02 19:04:00,
2013-02-02 12:07:00,39.3,18.6,30.66,ESE,123,1.0,2.0,43,0.00,,,0.00,Wunderground v.1.15,2013-02-02 19:07:00,
2013-02-02 12:09:00,39.6,18.9,30.66,SE,125,1.0,1.0,43,0.00,,,0.00,Wunderground v.1.15,2013-02-02 19:09:00,
2013-02-02 12:14:00,39.9,19.2,30.66,SE,124,1.0,3.0,43,0.00,,,0.00,Wunderground v.1.15,2013-02-02 19:14:00,
2013-02-02 12:16:00,40.1,18.8,30.65,SE,125,1.0,3.0,42,0.00,,,0.00,Wunderground v.1.15,2013-02-02 19:16:00,
2013-02-02 12:19:00,40.2,19.5,30.65,South,188,1.0,1.0,43,0.00,,,0.00,Wunderground v.1.15,2013-02-02 19:19:00,
2013-02-02 12:21:00,40.2,18.9,30.65,South,188,1.0,1.0,42,0.00,,,0.00,Wunderground v.1.15,2013-02-02 19:21:00,
2013-02-02 12:24:00,40.1,18.8,30.65,South,188,0.0,2.0,42,0.00,,,0.00,Wunderground v.1.15,2013-02-02 19:24:00,
2013-02-02 12:26:00,40.2,18.9,30.65,South,188,0.0,2.0,42,0.00,,,0.00,Wunderground v.1.15,2013-02-02 19:26:00,
2013-02-02 12:28:00,40.5,20.8,30.65,South,188,0.0,2.0,45,0.00,,,0.00,Wunderground v.1.15,2013-02-02 19:28:00,
2013-02-02 12:30:00,40.8,20.0,30.65,South,188,0.0,2.0,43,0.00,,,0.00,Wunderground v.1.15,2013-02-02 19:30:00,
2013-02-02 12:34:00,40.9,20.6,30.63,South,188,1.0,2.0,44,0.00,,,0.00,Wunderground v.1.15,2013-02-02 19:34:00,
2013-02-02 12:36:00,41.1,19.7,30.63,South,188,0.0,2.0,42,0.00,,,0.00,Wunderground v.1.15,2013-02-02 19:36:00,
2013-02-02 12:39:00,41.3,19.9,30.63,South,188,1.0,1.0,42,0.00,,,0.00,Wunderground v.1.15,2013-02-02 19:39:00,
2013-02-02 12:41:00,41.2,19.2,30.63,NW,307,1.0,1.0,41,0.00,,,0.00,Wunderground v.1.15,2013-02-02 19:41:00,
2013-02-02 12:46:00,40.9,19.5,30.62,NW,313,1.0,2.0,42,0.00,,,0.00,Wunderground v.1.15,2013-02-02 19:46:00,
2013-02-02 12:48:00,41.1,20.3,30.62,NW,313,1.0,2.0,43,0.00,,,0.00,Wunderground v.1.15,2013-02-02 19:48:00,
2013-02-02 12:51:00,41.2,19.2,30.62,NW,313,1.0,1.0,41,0.00,,,0.00,Wunderground v.1.15,2013-02-02 19:51:00,
2013-02-02 12:56:00,41.8,19.8,30.62,NW,313,1.0,1.0,41,0.00,,,0.00,Wunderground v.1.15,2013-02-02 19:56:00,
2013-02-02 13:00:00,41.5,20.1,30.62,NNE,32,1.0,2.0,42,0.00,,,0.00,Wunderground v.1.15,2013-02-02 20:00:00,
2013-02-02 13:03:00,41.1,20.3,30.62,NE,55,2.0,2.0,43,0.00,,,0.00,Wunderground v.1.15,2013-02-02 20:03:00,
2013-02-02 13:08:00,40.6,18.7,30.62,NE,41,2.0,3.0,41,0.00,,,0.00,Wunderground v.1.15,2013-02-02 20:08:00,
2013-02-02 13:11:00,40.9,19.5,30.62,NE,46,2.0,2.0,42,0.00,,,0.00,Wunderground v.1.15,2013-02-02 20:11:00,
2013-02-02 13:13:00,40.9,20.1,30.62,NNE,24,2.0,2.0,43,0.00,,,0.00,Wunderground v.1.15,2013-02-02 20:13:00,
2013-02-02 13:15:00,41.1,19.7,30.63,NNE,24,1.0,2.0,42,0.00,,,0.00,Wunderground v.1.15,2013-02-02 20:15:00,
2013-02-02 13:20:00,41.1,19.7,30.63,NNE,16,1.0,5.0,42,0.00,,,0.00,Wunderground v.1.15,2013-02-02 20:20:00,
2013-02-02 13:22:00,41.2,19.2,30.63,North,9,1.0,5.0,41,0.00,,,0.00,Wunderground v.1.15,2013-02-02 20:22:00,
2013-02-02 13:25:00,41.2,19.2,30.63,NE,51,1.0,5.0,41,0.00,,,0.00,Wunderground v.1.15,2013-02-02 20:25:00,
2013-02-02 13:27:00,41.2,19.2,30.63,North,32767,1.0,5.0,41,0.00,,,0.00,Wunderground v.1.15,2013-02-02 20:27:00,
2013-02-02 13:31:00,41.2,19.2,30.62,NNE,15,1.0,1.0,41,0.00,,,0.00,Wunderground v.1.15,2013-02-02 20:31:00,
2013-02-02 13:33:00,41.2,19.2,30.62,NNE,16,1.0,1.0,41,0.00,,,0.00,Wunderground v.1.15,2013-02-02 20:33:00,
2013-02-02 13:37:00,41.2,18.7,30.62,NE,39,0.0,2.0,40,0.00,,,0.00,Wunderground v.1.15,2013-02-02 20:37:00,
2013-02-02 13:40:00,41.3,18.8,30.62,NE,40,1.0,1.0,40,0.00,,,0.00,Wunderground v.1.15,2013-02-02 20:40:00,
2013-02-02 13:42:00,41.5,18.9,30.62,NE,36,1.0,2.0,40,0.00,,,0.00,Wunderground v.1.15,2013-02-02 20:42:00,
2013-02-02 13:45:00,41.5,18.4,30.60,NE,55,1.0,2.0,39,0.00,,,0.00,Wunderground v.1.15,2013-02-02 20:45:00,
2013-02-02 13:47:00,41.5,18.4,30.60,NNE,19,1.0,2.0,39,0.00,,,0.00,Wunderground v.1.15,2013-02-02 20:47:00,
2013-02-02 13:50:00,41.6,18.4,30.60,NNE,16,2.0,4.0,39,0.00,,,0.00,Wunderground v.1.15,2013-02-02 20:50:00,
2013-02-02 13:54:00,41.9,18.7,30.60,ENE,75,2.0,4.0,39,0.00,,,0.00,Wunderground v.1.15,2013-02-02 20:54:00,
2013-02-02 13:56:00,41.9,18.7,30.60,NNE,31,2.0,4.0,39,0.00,,,0.00,Wunderground v.1.15,2013-02-02 20:56:00,
2013-02-02 14:00:00,41.9,18.1,30.60,NE,36,1.0,1.0,38,0.00,,,0.00,Wunderground v.1.15,2013-02-02 21:00:00,
2013-02-02 14:02:00,42.1,18.9,30.60,NE,36,0.0,1.0,39,0.00,,,0.00,Wunderground v.1.15,2013-02-02 21:02:00,
2013-02-02 14:05:00,42.1,17.7,30.60,NE,36,0.0,1.0,37,0.00,,,0.00,Wunderground v.1.15,2013-02-02 21:05:00,
2013-02-02 14:07:00,42.1,17.7,30.60,NE,36,0.0,2.0,37,0.00,,,0.00,Wunderground v.1.15,2013-02-02 21:07:00,
2013-02-02 14:12:00,42.2,17.8,30.60,NE,40,1.0,1.0,37,0.00,,,0.00,Wunderground v.1.15,2013-02-02 21:12:00,
2013-02-02 14:14:00,42.2,17.1,30.60,NNE,32,1.0,1.0,36,0.00,,,0.00,Wunderground v.1.15,2013-02-02 21:14:00,
2013-02-02 14:18:00,42.2,17.1,30.60,NNE,32,1.0,1.0,36,0.00,,,0.00,Wunderground v.1.15,2013-02-02 21:18:00,
2013-02-02 14:21:00,42.2,17.8,30.60,NE,35,1.0,2.0,37,0.00,,,0.00,Wunderground v.1.15,2013-02-02 21:21:00,
2013-02-02 14:24:00,42.2,17.1,30.60,NE,35,0.0,2.0,36,0.00,,,0.00,Wunderground v.1.15,2013-02-02 21:24:00,
2013-02-02 14:26:00,42.3,17.2,30.60,NE,35,1.0,2.0,36,0.00,,,0.00,Wunderground v.1.15,2013-02-02 21:26:00,
2013-02-02 14:28:00,42.3,17.2,30.60,NE,35,0.0,2.0,36,0.00,,,0.00,Wunderground v.1.15,2013-02-02 21:28:00,
2013-02-02 14:30:00,42.5,16.7,30.60,NNE,25,1.0,1.0,35,0.00,,,0.00,Wunderground v.1.15,2013-02-02 21:30:00,
2013-02-02 14:31:00,42.6,16.8,30.60,NNE,25,1.0,1.0,35,0.00,,,0.00,Wunderground v.1.15,2013-02-02 21:31:00,
2013-02-02 14:34:00,42.9,17.1,30.60,NNW,344,1.0,4.0,35,0.00,,,0.00,Wunderground v.1.15,2013-02-02 21:34:00,
2013-02-02 14:36:00,42.9,17.7,30.60,NW,312,1.0,4.0,36,0.00,,,0.00,Wunderground v.1.15,2013-02-02 21:36:00,
2013-02-02 14:39:00,43.1,17.9,30.60,NW,312,1.0,1.0,36,0.00,,,0.00,Wunderground v.1.15,2013-02-02 21:39:00,
2013-02-02 14:41:00,43.1,17.9,30.60,NW,314,1.0,3.0,36,0.00,,,0.00,Wunderground v.1.15,2013-02-02 21:41:00,
2013-02-02 14:43:00,42.9,18.4,30.60,NW,321,1.0,3.0,37,0.00,,,0.00,Wunderground v.1.15,2013-02-02 21:43:00,
2013-02-02 14:48:00,43.1,17.9,30.60,NW,320,1.0,3.0,36,0.00,,,0.00,Wunderground v.1.15,2013-02-02 21:48:00,
2013-02-02 14:50:00,43.1,18.6,30.60,NW,321,1.0,1.0,37,0.00,,,0.00,Wunderground v.1.15,2013-02-02 21:50:00,
2013-02-02 14:51:00,43.2,18.6,30.60,NW,321,1.0,4.0,37,0.00,,,0.00,Wunderground v.1.15,2013-02-02 21:51:00,
2013-02-02 14:53:00,43.2,18.6,30.60,NW,320,1.0,4.0,37,0.00,,,0.00,Wunderground v.1.15,2013-02-02 21:53:00,
2013-02-02 14:56:00,43.1,18.6,30.60,NW,320,1.0,4.0,37,0.00,,,0.00,Wunderground v.1.15,2013-02-02 21:56:00,
2013-02-02 15:02:00,42.8,18.3,30.60,NW,320,1.0,1.0,37,0.00,,,0.00,Wunderground v.1.15,2013-02-02 22:02:00,
2013-02-02 15:04:00,42.8,18.3,30.60,NW,320,1.0,1.0,37,0.00,,,0.00,Wunderground v.1.15,2013-02-02 22:04:00,
2013-02-02 15:05:00,42.8,18.9,30.60,NW,320,0.0,4.0,38,0.00,,,0.00,Wunderground v.1.15,2013-02-02 22:05:00,
2013-02-02 15:07:00,42.8,18.3,30.60,NW,320,1.0,4.0,37,0.00,,,0.00,Wunderground v.1.15,2013-02-02 22:07:00,
2013-02-02 15:10:00,42.8,18.9,30.60,NW,320,1.0,4.0,38,0.00,,,0.00,Wunderground v.1.15,2013-02-02 22:10:00,
2013-02-02 15:14:00,42.6,18.7,30.60,NW,320,1.0,1.0,38,0.00,,,0.00,Wunderground v.1.15,2013-02-02 22:14:00,
2013-02-02 15:15:00,42.6,18.7,30.60,NW,320,1.0,1.0,38,0.00,,,0.00,Wunderground v.1.15,2013-02-02 22:15:00,
2013-02-02 15:19:00,42.8,19.5,30.60,NW,320,0.0,2.0,39,0.00,,,0.00,Wunderground v.1.15,2013-02-02 22:19:00,
2013-02-02 15:21:00,42.9,19.6,30.60,NW,320,0.0,0.0,39,0.00,,,0.00,Wunderground v.1.15,2013-02-02 22:21:00,
2013-02-02 15:24:00,42.9,19.0,30.60,NW,320,0.0,0.0,38,0.00,,,0.00,Wunderground v.1.15,2013-02-02 22:24:00,
2013-02-02 15:27:00,43.2,19.3,30.60,NW,320,0.0,1.0,38,0.00,,,0.00,Wunderground v.1.15,2013-02-02 22:27:00,
2013-02-02 15:30:00,43.2,19.9,30.60,NW,321,0.0,2.0,39,0.00,,,0.00,Wunderground v.1.15,2013-02-02 22:30:00,
2013-02-02 15:34:00,43.1,19.8,30.60,NW,320,0.0,0.0,39,0.00,,,0.00,Wunderground v.1.15,2013-02-02 22:34:00,
2013-02-02 15:36:00,43.1,19.8,30.60,NW,320,1.0,3.0,39,0.00,,,0.00,Wunderground v.1.15,2013-02-02 22:36:00,
2013-02-02 15:37:00,42.9,19.6,30.60,NW,321,1.0,3.0,39,0.00,,,0.00,Wunderground v.1.15,2013-02-02 22:37:00,
2013-02-02 15:39:00,42.8,20.1,30.60,NW,321,1.0,3.0,40,0.00,,,0.00,Wunderground v.1.15,2013-02-02 22:39:00,
2013-02-02 15:41:00,42.8,20.1,30.60,NW,321,1.0,1.0,40,0.00,,,0.00,Wunderground v.1.15,2013-02-02 22:41:00,
2013-02-02 15:44:00,42.8,20.1,30.60,NW,320,1.0,2.0,40,0.00,,,0.00,Wunderground v.1.15,2013-02-02 22:44:00,
2013-02-02 15:48:00,42.5,20.4,30.60,NW,320,1.0,2.0,41,0.00,,,0.00,Wunderground v.1.15,2013-02-02 22:48:00,
2013-02-02 15:49:00,42.5,19.8,30.60,NW,320,1.0,2.0,40,0.00,,,0.00,Wunderground v.1.15,2013-02-02 22:49:00,
2013-02-02 15:53:00,42.5,20.4,30.60,NW,321,0.0,0.0,41,0.00,,,0.00,Wunderground v.1.15,2013-02-02 22:53:00,
2013-02-02 15:58:00,42.3,19.7,30.60,NW,321,0.0,0.0,40,0.00,,,0.00,Wunderground v.1.15,2013-02-02 22:58:00,
2013-02-02 16:00:00,42.3,19.7,30.60,NW,320,0.0,3.0,40,0.00,,,0.00,Wunderground v.1.15,2013-02-02 23:00:00,
2013-02-02 16:01:00,42.2,20.2,30.61,NW,320,1.0,3.0,41,0.00,,,0.00,Wunderground v.1.15,2013-02-02 23:01:00,
2013-02-02 16:03:00,42.2,20.2,30.61,NW,321,1.0,3.0,41,0.00,,,0.00,Wunderground v.1.15,2013-02-02 23:03:00,
2013-02-02 16:08:00,42.1,19.5,30.61,NW,320,0.0,3.0,40,0.00,,,0.00,Wunderground v.1.15,2013-02-02 23:08:00,
2013-02-02 16:10:00,42.1,19.5,30.61,NW,320,1.0,1.0,40,0.00,,,0.00,Wunderground v.1.15,2013-02-02 23:10:00,
2013-02-02 16:13:00,41.9,19.3,30.61,NW,320,0.0,1.0,40,0.00,,,0.00,Wunderground v.1.15,2013-02-02 23:13:00,
2013-02-02 16:15:00,41.9,19.3,30.61,NW,320,0.0,1.0,40,0.00,,,0.00,Wunderground v.1.15,2013-02-02 23:15:00,
2013-02-02 16:20:00,41.9,19.9,30.61,NW,320,0.0,0.0,41,0.00,,,0.00,Wunderground v.1.15,2013-02-02 23:20:00,
2013-02-02 16:22:00,41.9,19.9,30.61,NW,321,0.0,0.0,41,0.00,,,0.00,Wunderground v.1.15,2013-02-02 23:22:00,
2013-02-02 16:23:00,41.9,19.9,30.61,NW,320,0.0,1.0,41,0.00,,,0.00,Wunderground v.1.15,2013-02-02 23:23:00,
2013-02-02 16:25:00,41.9,20.4,30.61,NW,320,0.0,1.0,42,0.00,,,0.00,Wunderground v.1.15,2013-02-02 23:25:00,
2013-02-02 16:31:00,41.8,19.8,30.61,NW,320,0.0,0.0,41,0.00,,,0.00,Wunderground v.1.15,2013-02-02 23:31:00,
2013-02-02 16:33:00,41.6,20.2,30.61,NW,321,0.0,0.0,42,0.00,,,0.00,Wunderground v.1.15,2013-02-02 23:33:00,
2013-02-02 16:37:00,41.6,20.2,30.61,NW,320,0.0,0.0,42,0.00,,,0.00,Wunderground v.1.15,2013-02-02 23:37:00,
2013-02-02 16:40:00,41.6,20.2,30.61,NW,320,0.0,0.0,42,0.00,,,0.00,Wunderground v.1.15,2013-02-02 23:40:00,
2013-02-02 16:44:00,41.5,20.1,30.61,NW,321,0.0,1.0,42,0.00,,,0.00,Wunderground v.1.15,2013-02-02 23:44:00,
2013-02-02 16:45:00,41.5,20.1,30.61,NW,321,0.0,1.0,42,0.00,,,0.00,Wunderground v.1.15,2013-02-02 23:45:00,
2013-02-02 16:47:00,41.3,20.5,30.61,NW,320,0.0,1.0,43,0.00,,,0.00,Wunderground v.1.15,2013-02-02 23:47:00,
2013-02-02 16:50:00,41.3,19.9,30.61,NW,320,0.0,0.0,42,0.00,,,0.00,Wunderground v.1.15,2013-02-02 23:50:00,
2013-02-02 16:52:00,41.3,19.9,30.61,NW,321,0.0,0.0,42,0.00,,,0.00,Wunderground v.1.15,2013-02-02 23:52:00,
2013-02-02 16:54:00,41.2,20.4,30.61,NW,320,0.0,0.0,43,0.00,,,0.00,Wunderground v.1.15,2013-02-02 23:54:00,
2013-02-02 16:57:00,41.1,20.3,30.61,NW,320,0.0,0.0,43,0.00,,,0.00,Wunderground v.1.15,2013-02-02 23:57:00,
2013-02-02 17:00:00,41.1,20.3,30.61,NW,320,0.0,0.0,43,0.00,,,0.00,Wunderground v.1.15,2013-02-03 00:00:00,
2013-02-02 17:04:00,41.1,20.3,30.60,NW,320,0.0,0.0,43,0.00,,,0.00,Wunderground v.1.15,2013-02-03 00:04:00,
2013-02-02 17:06:00,40.9,20.6,30.60,NW,320,0.0,0.0,44,0.00,,,0.00,Wunderground v.1.15,2013-02-03 00:06:00,
2013-02-02 17:09:00,40.8,20.5,30.60,NW,320,0.0,0.0,44,0.00,,,0.00,Wunderground v.1.15,2013-02-03 00:09:00,
2013-02-02 17:12:00,40.6,20.4,30.60,NW,320,0.0,0.0,44,0.00,,,0.00,Wunderground v.1.15,2013-02-03 00:12:00,
2013-02-02 17:14:00,40.6,20.4,30.60,NW,320,0.0,0.0,44,0.00,,,0.00,Wunderground v.1.15,2013-02-03 00:14:00,
2013-02-02 17:16:00,40.5,20.8,30.62,NW,320,0.0,0.0,45,0.00,,,0.00,Wunderground v.1.15,2013-02-03 00:16:00,
2013-02-02 17:19:00,40.3,20.6,30.62,NW,320,0.0,0.0,45,0.00,,,0.00,Wunderground v.1.15,2013-02-03 00:19:00,
2013-02-02 17:21:00,40.2,20.5,30.62,NW,320,0.0,0.0,45,0.00,,,0.00,Wunderground v.1.15,2013-02-03 00:21:00,
2013-02-02 17:26:00,39.9,20.8,30.62,NW,320,0.0,0.0,46,0.00,,,0.00,Wunderground v.1.15,2013-02-03 00:26:00,
2013-02-02 17:28:00,39.8,20.7,30.62,NW,321,0.0,0.0,46,0.00,,,0.00,Wunderground v.1.15,2013-02-03 00:28:00,
2013-02-02 17:30:00,39.6,21.0,30.62,NW,320,0.0,0.0,47,0.00,,,0.00,Wunderground v.1.15,2013-02-03 00:30:00,
2013-02-02 17:34:00,39.3,20.7,30.62,NW,320,0.0,0.0,47,0.00,,,0.00,Wunderground v.1.15,2013-02-03 00:34:00,
2013-02-02 17:36:00,39.2,20.6,30.62,NW,320,0.0,0.0,47,0.00,,,0.00,Wunderground v.1.15,2013-02-03 00:36:00,
2013-02-02 17:37:00,39.1,21.0,30.62,NW,320,0.0,0.0,48,0.00,,,0.00,Wunderground v.1.15,2013-02-03 00:37:00,
2013-02-02 17:39:00,38.8,20.8,30.62,NW,321,0.0,0.0,48,0.00,,,0.00,Wunderground v.1.15,2013-02-03 00:39:00,
2013-02-02 17:41:00,38.6,21.1,30.62,NW,320,0.0,0.0,49,0.00,,,0.00,Wunderground v.1.15,2013-02-03 00:41:00,
2013-02-02 17:44:00,38.5,21.0,30.62,NW,320,0.0,0.0,49,0.00,,,0.00,Wunderground v.1.15,2013-02-03 00:44:00,
2013-02-02 17:46:00,38.2,20.7,30.63,NW,320,0.0,0.0,49,0.00,,,0.00,Wunderground v.1.15,2013-02-03 00:46:00,
2013-02-02 17:48:00,38.0,21.0,30.63,NW,320,0.0,0.0,50,0.00,,,0.00,Wunderground v.1.15,2013-02-03 00:48:00,
2013-02-02 17:49:00,37.9,21.4,30.63,NW,320,0.0,0.0,51,0.00,,,0.00,Wunderground v.1.15,2013-02-03 00:49:00,
2013-02-02 17:51:00,37.6,21.1,30.63,NW,320,0.0,0.0,51,0.00,,,0.00,Wunderground v.1.15,2013-02-03 00:51:00,
2013-02-02 17:56:00,37.2,21.2,30.63,NW,320,0.0,0.0,52,0.00,,,0.00,Wunderground v.1.15,2013-02-03 00:56:00,
2013-02-02 17:58:00,37.0,21.0,30.63,NW,320,0.0,0.0,52,0.00,,,0.00,Wunderground v.1.15,2013-02-03 00:58:00,
2013-02-02 18:02:00,36.8,20.8,30.64,NW,320,0.0,0.0,52,0.00,,,0.00,Wunderground v.1.15,2013-02-03 01:02:00,
2013-02-02 18:04:00,36.6,20.6,30.64,NW,320,0.0,0.0,52,0.00,,,0.00,Wunderground v.1.15,2013-02-03 01:04:00,
2013-02-02 18:06:00,36.5,21.0,30.64,NW,320,0.0,0.0,53,0.00,,,0.00,Wunderground v.1.15,2013-02-03 01:06:00,
2013-02-02 18:08:00,36.3,21.2,30.64,NW,320,0.0,0.0,54,0.00,,,0.00,Wunderground v.1.15,2013-02-03 01:08:00,
2013-02-02 18:11:00,36.0,21.4,30.64,NW,320,0.0,0.0,55,0.00,,,0.00,Wunderground v.1.15,2013-02-03 01:11:00,
2013-02-02 18:13:00,36.0,21.4,30.64,NW,320,0.0,0.0,55,0.00,,,0.00,Wunderground v.1.15,2013-02-03 01:13:00,
2013-02-02 18:16:00,35.9,21.7,30.66,NW,320,0.0,0.0,56,0.00,,,0.00,Wunderground v.1.15,2013-02-03 01:16:00,
2013-02-02 18:18:00,35.8,21.6,30.66,NW,320,0.0,0.0,56,0.00,,,0.00,Wunderground v.1.15,2013-02-03 01:18:00,
2013-02-02 18:21:00,35.5,21.3,30.66,NW,320,0.0,0.0,56,0.00,,,0.00,Wunderground v.1.15,2013-02-03 01:21:00,
2013-02-02 18:23:00,35.3,21.6,30.66,NW,320,0.0,0.0,57,0.00,,,0.00,Wunderground v.1.15,2013-02-03 01:23:00,
2013-02-02 18:25:00,35.2,21.5,30.66,NW,320,0.0,0.0,57,0.00,,,0.00,Wunderground v.1.15,2013-02-03 01:25:00,
2013-02-02 18:28:00,35.0,21.7,30.66,NW,320,0.0,0.0,58,0.00,,,0.00,Wunderground v.1.15,2013-02-03 01:28:00,
2013-02-02 18:31:00,34.7,21.8,30.66,NW,320,0.0,0.0,59,0.00,,,0.00,Wunderground v.1.15,2013-02-03 01:31:00,
2013-02-02 18:33:00,34.6,21.7,30.66,NW,320,0.0,0.0,59,0.00,,,0.00,Wunderground v.1.15,2013-02-03 01:33:00,
2013-02-02 18:35:00,34.3,21.8,30.66,NW,320,0.0,0.0,60,0.00,,,0.00,Wunderground v.1.15,2013-02-03 01:35:00,
2013-02-02 18:40:00,34.0,22.0,30.66,NW,320,0.0,0.0,61,0.00,,,0.00,Wunderground v.1.15,2013-02-03 01:40:00,
2013-02-02 18:43:00,33.7,22.1,30.66,NW,320,0.0,0.0,62,0.00,,,0.00,Wunderground v.1.15,2013-02-03 01:43:00,
2013-02-02 18:45:00,33.4,22.1,30.67,NW,320,0.0,0.0,63,0.00,,,0.00,Wunderground v.1.15,2013-02-03 01:45:00,
2013-02-02 18:50:00,32.9,22.0,30.67,NW,320,0.0,0.0,64,0.00,,,0.00,Wunderground v.1.15,2013-02-03 01:50:00,
2013-02-02 18:52:00,32.8,22.0,30.67,NW,320,0.0,0.0,64,0.00,,,0.00,Wunderground v.1.15,2013-02-03 01:52:00,
2013-02-02 18:57:00,31.9,21.8,30.67,NW,320,0.0,0.0,66,0.00,,,0.00,Wunderground v.1.15,2013-02-03 01:57:00,
2013-02-02 19:02:00,31.5,21.8,30.69,NW,321,0.0,0.0,67,0.00,,,0.00,Wunderground v.1.15,2013-02-03 02:02:00,
2013-02-02 19:04:00,31.2,21.9,30.69,NW,320,0.0,0.0,68,0.00,,,0.00,Wunderground v.1.15,2013-02-03 02:04:00,
2013-02-02 19:05:00,31.2,21.9,30.69,NW,320,0.0,0.0,68,0.00,,,0.00,Wunderground v.1.15,2013-02-03 02:05:00,
2013-02-02 19:07:00,30.9,21.6,30.69,NW,320,0.0,0.0,68,0.00,,,0.00,Wunderground v.1.15,2013-02-03 02:07:00,
2013-02-02 19:13:00,30.4,21.4,30.69,NW,320,0.0,1.0,69,0.00,,,0.00,Wunderground v.1.15,2013-02-03 02:13:00,
2013-02-02 19:15:00,30.3,21.3,30.66,NW,320,0.0,1.0,69,0.00,,,0.00,Wunderground v.1.15,2013-02-03 02:15:00,
2013-02-02 19:19:00,30.1,21.5,30.66,NW,320,0.0,1.0,70,0.00,,,0.00,Wunderground v.1.15,2013-02-03 02:19:00,
2013-02-02 19:22:00,30.1,21.5,30.66,NW,320,0.0,0.0,70,0.00,,,0.00,Wunderground v.1.15,2013-02-03 02:22:00,
2013-02-02 19:24:00,30.0,21.4,30.66,NW,320,0.0,0.0,70,0.00,,,0.00,Wunderground v.1.15,2013-02-03 02:24:00,
2013-02-02 19:25:00,29.8,21.2,30.66,NW,320,0.0,0.0,70,0.00,,,0.00,Wunderground v.1.15,2013-02-03 02:25:00,
2013-02-02 19:27:00,29.8,21.5,30.66,NW,320,0.0,0.0,71,0.00,,,0.00,Wunderground v.1.15,2013-02-03 02:27:00,
2013-02-02 19:34:00,29.7,21.4,30.66,NW,320,0.0,0.0,71,0.00,,,0.00,Wunderground v.1.15,2013-02-03 02:34:00,
2013-02-02 19:35:00,29.5,21.3,30.66,NW,321,0.0,0.0,71,0.00,,,0.00,Wunderground v.1.15,2013-02-03 02:35:00,
2013-02-02 19:37:00,29.5,21.3,30.66,NW,320,0.0,0.0,71,0.00,,,0.00,Wunderground v.1.15,2013-02-03 02:37:00,
2013-02-02 19:42:00,29.4,21.5,30.66,NW,320,0.0,0.0,72,0.00,,,0.00,Wunderground v.1.15,2013-02-03 02:42:00,
2013-02-02 19:43:00,29.4,21.5,30.66,NW,320,0.0,0.0,72,0.00,,,0.00,Wunderground v.1.15,2013-02-03 02:43:00,
2013-02-02 19:45:00,29.4,21.5,30.68,NW,320,0.0,0.0,72,0.00,,,0.00,Wunderground v.1.15,2013-02-03 02:45:00,
2013-02-02 19:49:00,29.4,21.2,30.68,NW,320,0.0,0.0,71,0.00,,,0.00,Wunderground v.1.15,2013-02-03 02:49:00,
2013-02-02 19:52:00,29.4,21.2,30.68,NW,320,0.0,0.0,71,0.00,,,0.00,Wunderground v.1.15,2013-02-03 02:52:00,
2013-02-02 19:57:00,29.5,20.9,30.68,NW,320,0.0,0.0,70,0.00,,,0.00,Wunderground v.1.15,2013-02-03 02:57:00,
2013-02-02 20:00:00,29.7,21.1,30.68,NW,320,0.0,0.0,70,0.00,,,0.00,Wunderground v.1.15,2013-02-03 03:00:00,
2013-02-02 20:02:00,29.7,21.1,30.67,NW,320,0.0,0.0,70,0.00,,,0.00,Wunderground v.1.15,2013-02-03 03:02:00,
2013-02-02 20:05:00,29.8,20.9,30.67,NW,320,0.0,0.0,69,0.00,,,0.00,Wunderground v.1.15,2013-02-03 03:05:00,
2013-02-02 20:07:00,29.8,20.9,30.67,NW,320,0.0,0.0,69,0.00,,,0.00,Wunderground v.1.15,2013-02-03 03:07:00,
2013-02-02 20:09:00,29.8,20.9,30.67,NW,320,0.0,0.0,69,0.00,,,0.00,Wunderground v.1.15,2013-02-03 03:09:00,
2013-02-02 20:12:00,29.7,20.8,30.67,NW,320,0.0,0.0,69,0.00,,,0.00,Wunderground v.1.15,2013-02-03 03:12:00,
2013-02-02 20:14:00,29.5,20.9,30.67,NW,320,0.0,0.0,70,0.00,,,0.00,Wunderground v.1.15,2013-02-03 03:14:00,
2013-02-02 20:15:00,29.5,20.9,30.64,NW,320,0.0,0.0,70,0.00,,,0.00,Wunderground v.1.15,2013-02-03 03:15:00,
2013-02-02 20:19:00,29.3,21.1,30.64,NW,320,0.0,0.0,71,0.00,,,0.00,Wunderground v.1.15,2013-02-03 03:19:00,
2013-02-02 20:21:00,29.1,20.9,30.64,NW,320,0.0,0.0,71,0.00,,,0.00,Wunderground v.1.15,2013-02-03 03:21:00,
2013-02-02 20:24:00,29.0,20.8,30.64,NW,320,0.0,0.0,71,0.00,,,0.00,Wunderground v.1.15,2013-02-03 03:24:00,
2013-02-02 20:26:00,29.0,21.1,30.64,NW,320,0.0,0.0,72,0.00,,,0.00,Wunderground v.1.15,2013-02-03 03:26:00,
2013-02-02 20:27:00,28.8,20.9,30.64,NW,320,0.0,0.0,72,0.00,,,0.00,Wunderground v.1.15,2013-02-03 03:27:00,
2013-02-02 20:32:00,28.7,20.8,30.66,NW,320,0.0,0.0,72,0.00,,,0.00,Wunderground v.1.15,2013-02-03 03:32:00,
2013-02-02 20:35:00,28.5,20.9,30.66,NW,320,0.0,0.0,73,0.00,,,0.00,Wunderground v.1.15,2013-02-03 03:35:00,
2013-02-02 20:38:00,28.5,20.9,30.66,NW,321,0.0,0.0,73,0.00,,,0.00,Wunderground v.1.15,2013-02-03 03:38:00,
2013-02-02 20:40:00,28.4,20.8,30.66,NW,320,0.0,0.0,73,0.00,,,0.00,Wunderground v.1.15,2013-02-03 03:40:00,
2013-02-02 20:41:00,28.4,20.8,30.66,NW,320,0.0,0.0,73,0.00,,,0.00,Wunderground v.1.15,2013-02-03 03:41:00,
2013-02-02 20:46:00,28.2,21.0,30.65,NW,320,0.0,0.0,74,0.00,,,0.00,Wunderground v.1.15,2013-02-03 03:46:00,
2013-02-02 20:48:00,28.2,21.0,30.65,NW,320,0.0,0.0,74,0.00,,,0.00,Wunderground v.1.15,2013-02-03 03:48:00,
2013-02-02 20:50:00,28.2,21.0,30.65,NW,320,0.0,0.0,74,0.00,,,0.00,Wunderground v.1.15,2013-02-03 03:50:00,
2013-02-02 20:51:00,28.1,20.9,30.65,NW,320,0.0,0.0,74,0.00,,,0.00,Wunderground v.1.15,2013-02-03 03:51:00,
2013-02-02 20:53:00,28.1,20.9,30.65,NW,320,0.0,0.0,74,0.00,,,0.00,Wunderground v.1.15,2013-02-03 03:53:00,
2013-02-02 20:58:00,27.9,20.7,30.65,NW,320,0.0,0.0,74,0.00,,,0.00,Wunderground v.1.15,2013-02-03 03:58:00,
2013-02-02 21:01:00,27.6,20.4,30.65,NW,320,0.0,0.0,74,0.00,,,0.00,Wunderground v.1.15,2013-02-03 04:01:00,
2013-02-02 21:05:00,27.5,20.3,30.65,NW,320,0.0,0.0,74,0.00,,,0.00,Wunderground v.1.15,2013-02-03 04:05:00,
2013-02-02 21:07:00,27.5,20.6,30.65,NW,320,0.0,0.0,75,0.00,,,0.00,Wunderground v.1.15,2013-02-03 04:07:00,
2013-02-02 21:10:00,27.3,20.4,30.65,NW,320,0.0,0.0,75,0.00,,,0.00,Wunderground v.1.15,2013-02-03 04:10:00,
2013-02-02 21:13:00,27.3,20.4,30.65,NW,320,0.0,0.0,75,0.00,,,0.00,Wunderground v.1.15,2013-02-03 04:13:00,
2013-02-02 21:16:00,27.3,20.4,30.64,NW,320,0.0,0.0,75,0.00,,,0.00,Wunderground v.1.15,2013-02-03 04:16:00,
2013-02-02 21:20:00,27.2,20.3,30.64,NW,320,0.0,0.0,75,0.00,,,0.00,Wunderground v.1.15,2013-02-03 04:20:00,
2013-02-02 21:22:00,27.2,20.3,30.64,NW,320,0.0,0.0,75,0.00,,,0.00,Wunderground v.1.15,2013-02-03 04:22:00,
2013-02-02 21:23:00,27.2,20.3,30.64,NW,320,0.0,0.0,75,0.00,,,0.00,Wunderground v.1.15,2013-02-03 04:23:00,
2013-02-02 21:25:00,27.2,20.3,30.64,NW,320,0.0,0.0,75,0.00,,,0.00,Wunderground v.1.15,2013-02-03 04:25:00,
2013-02-02 21:28:00,27.2,20.3,30.64,NW,320,0.0,0.0,75,0.00,,,0.00,Wunderground v.1.15,2013-02-03 04:28:00,
2013-02-02 21:32:00,27.2,20.3,30.64,NW,320,0.0,0.0,75,0.00,,,0.00,Wunderground v.1.15,2013-02-03 04:32:00,
2013-02-02 21:35:00,27.2,20.3,30.64,NW,320,0.0,0.0,75,0.00,,,0.00,Wunderground v.1.15,2013-02-03 04:35:00,
2013-02-02 21:38:00,27.0,20.1,30.64,NW,320,0.0,0.0,75,0.00,,,0.00,Wunderground v.1.15,2013-02-03 04:38:00,
2013-02-02 21:42:00,27.0,20.1,30.64,NW,320,0.0,0.0,75,0.00,,,0.00,Wunderground v.1.15,2013-02-03 04:42:00,
2013-02-02 21:43:00,27.0,20.1,30.64,NW,320,0.0,0.0,75,0.00,,,0.00,Wunderground v.1.15,2013-02-03 04:43:00,
2013-02-02 21:48:00,27.0,19.8,30.63,NW,320,0.0,0.0,74,0.00,,,0.00,Wunderground v.1.15,2013-02-03 04:48:00,
2013-02-02 21:50:00,27.2,20.0,30.63,NW,320,0.0,0.0,74,0.00,,,0.00,Wunderground v.1.15,2013-02-03 04:50:00,
2013-02-02 21:51:00,27.2,20.0,30.63,NW,320,0.0,0.0,74,0.00,,,0.00,Wunderground v.1.15,2013-02-03 04:51:00,
2013-02-02 21:55:00,27.2,19.7,30.63,NW,320,0.0,0.0,73,0.00,,,0.00,Wunderground v.1.15,2013-02-03 04:55:00,
2013-02-02 21:57:00,27.2,19.7,30.63,NW,320,0.0,0.0,73,0.00,,,0.00,Wunderground v.1.15,2013-02-03 04:57:00,
2013-02-02 22:02:00,27.2,19.7,30.63,NW,320,0.0,0.0,73,0.00,,,0.00,Wunderground v.1.15,2013-02-03 05:02:00,
2013-02-02 22:04:00,27.2,19.7,30.63,NW,320,0.0,0.0,73,0.00,,,0.00,Wunderground v.1.15,2013-02-03 05:04:00,
2013-02-02 22:09:00,27.0,19.2,30.63,NW,320,0.0,0.0,72,0.00,,,0.00,Wunderground v.1.15,2013-02-03 05:09:00,
2013-02-02 22:12:00,27.0,19.2,30.63,NW,320,0.0,0.0,72,0.00,,,0.00,Wunderground v.1.15,2013-02-03 05:12:00,
2013-02-02 22:16:00,27.0,19.2,30.60,NW,320,0.0,0.0,72,0.00,,,0.00,Wunderground v.1.15,2013-02-03 05:16:00,
2013-02-02 22:17:00,27.0,19.5,30.60,NW,320,0.0,0.0,73,0.00,,,0.00,Wunderground v.1.15,2013-02-03 05:17:00,
2013-02-02 22:22:00,27.0,19.5,30.60,NW,320,0.0,0.0,73,0.00,,,0.00,Wunderground v.1.15,2013-02-03 05:22:00,
2013-02-02 22:24:00,27.0,19.5,30.60,NW,320,0.0,0.0,73,0.00,,,0.00,Wunderground v.1.15,2013-02-03 05:24:00,
2013-02-02 22:27:00,27.0,19.2,30.60,NW,320,0.0,0.0,72,0.00,,,0.00,Wunderground v.1.15,2013-02-03 05:27:00,
2013-02-02 22:32:00,26.9,19.1,30.59,NW,320,0.0,0.0,72,0.00,,,0.00,Wunderground v.1.15,2013-02-03 05:32:00,
2013-02-02 22:34:00,26.9,19.1,30.59,NW,320,0.0,0.0,72,0.00,,,0.00,Wunderground v.1.15,2013-02-03 05:34:00,
2013-02-02 22:35:00,26.9,19.4,30.59,NW,320,0.0,0.0,73,0.00,,,0.00,Wunderground v.1.15,2013-02-03 05:35:00,
2013-02-02 22:37:00,26.9,19.4,30.59,NW,320,0.0,0.0,73,0.00,,,0.00,Wunderground v.1.15,2013-02-03 05:37:00,
2013-02-02 22:39:00,26.9,19.4,30.59,NW,320,0.0,0.0,73,0.00,,,0.00,Wunderground v.1.15,2013-02-03 05:39:00,
2013-02-02 22:44:00,26.7,19.2,30.59,NW,320,0.0,1.0,73,0.00,,,0.00,Wunderground v.1.15,2013-02-03 05:44:00,
2013-02-02 22:47:00,26.9,19.1,30.59,NW,320,0.0,1.0,72,0.00,,,0.00,Wunderground v.1.15,2013-02-03 05:47:00,
2013-02-02 22:49:00,27.0,18.8,30.59,NW,320,0.0,1.0,71,0.00,,,0.00,Wunderground v.1.15,2013-02-03 05:49:00,
2013-02-02 22:51:00,27.2,19.0,30.59,NW,320,0.0,0.0,71,0.00,,,0.00,Wunderground v.1.15,2013-02-03 05:51:00,
2013-02-02 22:58:00,27.2,18.7,30.59,NW,320,0.0,0.0,70,0.00,,,0.00,Wunderground v.1.15,2013-02-03 05:58:00,
2013-02-02 23:00:00,27.3,18.8,30.59,NW,320,0.0,0.0,70,0.00,,,0.00,Wunderground v.1.15,2013-02-03 06:00:00,
2013-02-02 23:04:00,27.3,18.5,30.59,NW,320,0.0,0.0,69,0.00,,,0.00,Wunderground v.1.15,2013-02-03 06:04:00,
2013-02-02 23:07:00,27.3,18.5,30.59,NW,320,0.0,0.0,69,0.00,,,0.00,Wunderground v.1.15,2013-02-03 06:07:00,
2013-02-02 23:11:00,27.2,18.4,30.59,NW,320,0.0,0.0,69,0.00,,,0.00,Wunderground v.1.15,2013-02-03 06:11:00,
2013-02-02 23:14:00,27.0,18.2,30.59,NW,320,0.0,0.0,69,0.00,,,0.00,Wunderground v.1.15,2013-02-03 06:14:00,
2013-02-02 23:18:00,26.9,18.4,30.56,NW,320,0.0,0.0,70,0.00,,,0.00,Wunderground v.1.15,2013-02-03 06:18:00,
2013-02-02 23:20:00,26.7,18.2,30.56,NW,320,0.0,0.0,70,0.00,,,0.00,Wunderground v.1.15,2013-02-03 06:20:00,
2013-02-02 23:23:00,26.6,18.5,30.56,NW,320,0.0,0.0,71,0.00,,,0.00,Wunderground v.1.15,2013-02-03 06:23:00,
2013-02-02 23:26:00,26.4,18.3,30.56,NW,320,0.0,0.0,71,0.00,,,0.00,Wunderground v.1.15,2013-02-03 06:26:00,
2013-02-02 23:30:00,26.3,18.5,30.56,NW,320,0.0,0.0,72,0.00,,,0.00,Wunderground v.1.15,2013-02-03 06:30:00,
2013-02-02 23:31:00,26.3,18.5,30.57,NW,320,0.0,0.0,72,0.00,,,0.00,Wunderground v.1.15,2013-02-03 06:31:00,
2013-02-02 23:33:00,26.1,18.3,30.57,NW,320,0.0,0.0,72,0.00,,,0.00,Wunderground v.1.15,2013-02-03 06:33:00,
2013-02-02 23:36:00,26.0,18.5,30.57,NW,320,0.0,0.0,73,0.00,,,0.00,Wunderground v.1.15,2013-02-03 06:36:00,
2013-02-02 23:38:00,26.0,18.5,30.57,NW,320,0.0,0.0,73,0.00,,,0.00,Wunderground v.1.15,2013-02-03 06:38:00,
2013-02-02 23:40:00,25.8,18.3,30.57,NW,320,0.0,0.0,73,0.00,,,0.00,Wunderground v.1.15,2013-02-03 06:40:00,
2013-02-02 23:43:00,25.6,18.5,30.57,NW,320,0.0,0.0,74,0.00,,,0.00,Wunderground v.1.15,2013-02-03 06:43:00,
2013-02-02 23:48:00,25.4,18.3,30.57,NW,320,0.0,0.0,74,0.00,,,0.00,Wunderground v.1.15,2013-02-03 06:48:00,
2013-02-02 23:50:00,25.4,18.3,30.57,NW,320,0.0,0.0,74,0.00,,,0.00,Wunderground v.1.15,2013-02-03 06:50:00,
2013-02-02 23:52:00,25.3,18.5,30.57,NW,320,0.0,0.0,75,0.00,,,0.00,Wunderground v.1.15,2013-02-03 06:52:00,
2013-02-02 23:58:00,25.0,18.2,30.57,NW,320,0.0,0.0,75,0.00,,,0.00,Wunderground v.1.15,2013-02-03 06:58:00,